Location: Bismarck
(46.7731°N, 100.8200°W)
Time: 19:19:10
(UTC-05:00)

ISS - Visible Passes

Search period start: 22 September 2014 00:00
Search period end: 02 October 2014 00:00
Orbit: 414 x 416 km, 51.6° (Epoch: 22 September)

Date Brightness Start Highest point End Pass type
(mag) Time Alt. Az. Time Alt. Az. Time Alt. Az.
22 Sep -2.2 05:27:15 37° N 05:27:15 37° N 05:30:23 10° ENE visible
23 Sep -0.5 04:40:19 19° NE 04:40:19 19° NE 04:41:26 10° ENE visible
23 Sep -2.0 06:13:12 16° NW 06:15:24 35° N 06:18:31 10° ENE visible
24 Sep -2.0 05:26:16 33° N 05:26:20 34° N 05:29:25 10° ENE visible
24 Sep -2.8 07:00:07 10° WNW 07:03:25 61° NNE 07:06:44 10° ESE visible
25 Sep -0.3 04:39:21 17° NE 04:39:21 17° NE 04:40:20 10° ENE visible
25 Sep -2.4 06:12:14 19° NW 06:14:23 47° NNE 06:17:37 10° E visible
26 Sep -2.1 05:25:21 39° NNE 05:25:21 39° NNE 05:28:27 10° E visible
26 Sep -3.2 06:58:50 10° WNW 07:02:10 69° SSW 07:05:28 10° SE visible
27 Sep -0.1 04:38:32 15° ENE 04:38:32 15° ENE 04:39:14 10° ENE visible
27 Sep -3.3 06:11:25 26° WNW 06:13:09 80° NNE 06:16:28 10° ESE visible
28 Sep -2.3 05:24:40 47° ENE 05:24:40 47° ENE 05:27:20 10° E visible
28 Sep -2.3 06:57:39 10° W 07:00:37 30° SW 07:03:35 10° SSE visible
29 Sep 0.1 04:38:02 10° E 04:38:02 10° E 04:38:06 10° E visible
29 Sep -3.0 06:10:56 40° WSW 06:11:38 48° SSW 06:14:51 10° SE visible
30 Sep -1.3 05:24:25 24° SE 05:24:25 24° SE 05:25:53 10° ESE visible
30 Sep -1.2 06:57:19 11° WSW 06:58:46 13° SW 07:00:28 10° SSW visible
01 Oct -1.4 06:10:58 18° SSW 06:10:58 18° SSW 06:12:26 10° S visible
